Location: Eckley Miners' Village
(40.9930°N, 75.8630°W)
Time: 00:46:53
(UTC-04:00)

Vanguard 1 Rocket - Pass Details

Date: 18 March 2026
Orbit: 654 x 4213 km, 34.3° (Epoch: 20 April)

Event Time Altitude Azimuth Distance (km) Brightness Sun altitude
Exits shadow 05:21:16 10° 201° (SSW) 3,672 10.1 -21.1°
Maximum altitude 05:26:47 18° 161° (SSE) 2,414 9.6 -20.1°
Drops below altitude 10° 05:30:48 10° 118° (ESE) 2,552 10.3 -19.3°
Sets 05:33:38 0° 98° (E) 3,234 11.4 -18.8°
